Terminal Aerodrome Forecast
Issued by NWS Austin/San Antonio, TX

Home | Current Version | Previous Version | Text Only | Print | Product List | Glossary On
Versions: 1 2 3 4 5 6 7 8 9 10 11 12 13 14 15 16 17 18 19 20 21 22 23 24 25 26 27 28 29 30 31 32 33
000
FTUS44 KEWX 241319 AAA
TAFAUS
TAF AMD
KAUS 241319Z 2413/2518 17010KT P6SM BKN060 OVC150
     FM241600 18013KT P6SM SCT030
     FM250400 15010KT 6SM BR OVC015
     FM250700 15010KT 4SM BR OVC007
     FM251700 16010KT P6SM BKN018=

USA.gov is the U.S. government's official web portal to all federal, state and local government web resources and services.